Year,Month,Day,Hour,Minute,Value (Times are PST for temperature in C)
2009,07,29,00,00,24.80
2009,07,29,00,01,24.80
2009,07,29,00,02,24.80
2009,07,29,00,03,24.80
2009,07,29,00,04,24.70
2009,07,29,00,05,24.70
2009,07,29,00,06,24.70
2009,07,29,00,07,24.70
2009,07,29,00,08,24.60
2009,07,29,00,09,24.60
2009,07,29,00,10,24.60
2009,07,29,00,11,24.50
2009,07,29,00,12,24.50
2009,07,29,00,13,24.40
2009,07,29,00,14,24.40
2009,07,29,00,15,24.40
2009,07,29,00,16,24.40
2009,07,29,00,17,24.40
2009,07,29,00,18,24.40
2009,07,29,00,19,24.30
2009,07,29,00,20,24.30
2009,07,29,00,21,24.30
2009,07,29,00,22,24.30
2009,07,29,00,23,24.30
2009,07,29,00,24,24.30
2009,07,29,00,25,24.30
2009,07,29,00,26,24.30
2009,07,29,00,27,24.30
2009,07,29,00,28,24.20
2009,07,29,00,29,24.20
2009,07,29,00,30,24.20
2009,07,29,00,31,24.20
2009,07,29,00,32,24.20
2009,07,29,00,33,24.20
2009,07,29,00,34,24.10
2009,07,29,00,35,24.10
2009,07,29,00,36,24.10
2009,07,29,00,37,24.10
2009,07,29,00,38,24.10
2009,07,29,00,39,24.10
2009,07,29,00,40,24.00
2009,07,29,00,41,24.00
2009,07,29,00,42,24.00
2009,07,29,00,43,24.00
2009,07,29,00,44,24.00
2009,07,29,00,45,23.90
2009,07,29,00,46,23.90
2009,07,29,00,47,23.90
2009,07,29,00,48,23.90
2009,07,29,00,49,23.90
2009,07,29,00,50,23.90
2009,07,29,00,51,23.90
2009,07,29,00,52,23.90
2009,07,29,00,53,23.90
2009,07,29,00,54,23.90
2009,07,29,00,55,23.90
2009,07,29,00,56,23.90
2009,07,29,00,57,23.90
2009,07,29,00,58,23.90
2009,07,29,00,59,23.90
2009,07,29,01,00,23.90
2009,07,29,01,01,23.90
2009,07,29,01,02,24.00
2009,07,29,01,03,24.00
2009,07,29,01,04,24.00
2009,07,29,01,05,24.10
2009,07,29,01,06,24.10
2009,07,29,01,07,24.10
2009,07,29,01,08,24.10
2009,07,29,01,09,24.20
2009,07,29,01,10,24.20
2009,07,29,01,11,24.30
2009,07,29,01,12,24.30
2009,07,29,01,13,24.30
2009,07,29,01,14,24.30
2009,07,29,01,15,24.30
2009,07,29,01,16,24.30
2009,07,29,01,17,24.30
2009,07,29,01,18,24.30
2009,07,29,01,19,24.30
2009,07,29,01,20,24.30
2009,07,29,01,21,24.30
2009,07,29,01,22,24.30
2009,07,29,01,23,24.30
2009,07,29,01,24,24.30
2009,07,29,01,25,24.30
2009,07,29,01,26,24.30
2009,07,29,01,27,24.30
2009,07,29,01,28,24.30
2009,07,29,01,29,24.20
2009,07,29,01,30,24.20
2009,07,29,01,31,24.20
2009,07,29,01,32,24.30
2009,07,29,01,33,24.30
2009,07,29,01,34,24.30
2009,07,29,01,35,24.40
2009,07,29,01,36,24.50
2009,07,29,01,37,24.60
2009,07,29,01,38,24.70
2009,07,29,01,39,24.90
2009,07,29,01,40,25.10
2009,07,29,01,41,25.30
2009,07,29,01,42,25.50
2009,07,29,01,43,25.60
2009,07,29,01,44,25.60
2009,07,29,01,45,25.60
2009,07,29,01,46,25.70
2009,07,29,01,47,25.70
2009,07,29,01,48,25.70
2009,07,29,01,49,25.70
2009,07,29,01,50,25.60
2009,07,29,01,51,25.50
2009,07,29,01,52,25.40
2009,07,29,01,53,25.30
2009,07,29,01,54,25.20
2009,07,29,01,55,25.10
2009,07,29,01,56,25.10
2009,07,29,01,57,25.10
2009,07,29,01,58,25.10
2009,07,29,01,59,25.10
2009,07,29,02,00,25.10
2009,07,29,02,01,25.20
2009,07,29,02,02,25.20
2009,07,29,02,03,25.20
2009,07,29,02,04,25.20
2009,07,29,02,05,25.20
2009,07,29,02,06,25.20
2009,07,29,02,07,25.20
2009,07,29,02,08,25.30
2009,07,29,02,09,25.40
2009,07,29,02,10,25.40
2009,07,29,02,11,25.40
2009,07,29,02,12,25.30
2009,07,29,02,13,25.30
2009,07,29,02,14,25.30
2009,07,29,02,15,25.20
2009,07,29,02,16,25.10
2009,07,29,02,17,25.00
2009,07,29,02,18,24.90
2009,07,29,02,19,24.80
2009,07,29,02,20,24.80
2009,07,29,02,21,24.70
2009,07,29,02,22,24.60
2009,07,29,02,23,24.50
2009,07,29,02,24,24.40
2009,07,29,02,25,24.30
2009,07,29,02,26,24.30
2009,07,29,02,27,24.20
2009,07,29,02,28,24.10
2009,07,29,02,29,24.00
2009,07,29,02,30,23.90
2009,07,29,02,31,23.70
2009,07,29,02,32,23.60
2009,07,29,02,33,23.40
2009,07,29,02,34,23.30
2009,07,29,02,35,23.20
2009,07,29,02,36,23.10
2009,07,29,02,37,23.00
2009,07,29,02,38,23.00
2009,07,29,02,39,22.90
2009,07,29,02,40,22.80
2009,07,29,02,41,22.80
2009,07,29,02,42,22.80
2009,07,29,02,43,22.70
2009,07,29,02,44,22.70
2009,07,29,02,45,22.70
2009,07,29,02,46,22.70
2009,07,29,02,47,22.60
2009,07,29,02,48,22.60
2009,07,29,02,49,22.60
2009,07,29,02,50,22.60
2009,07,29,02,51,22.60
2009,07,29,02,52,22.60
2009,07,29,02,53,22.60
2009,07,29,02,54,22.60
2009,07,29,02,55,22.60
2009,07,29,02,56,22.60
2009,07,29,02,57,22.60
2009,07,29,02,58,22.60
2009,07,29,02,59,22.50
2009,07,29,03,00,22.50
2009,07,29,03,01,22.50
2009,07,29,03,02,22.50
2009,07,29,03,03,22.50
2009,07,29,03,04,22.50
2009,07,29,03,05,22.50
2009,07,29,03,06,22.50
2009,07,29,03,07,22.50
2009,07,29,03,08,22.50
2009,07,29,03,09,22.50
2009,07,29,03,10,22.50
2009,07,29,03,11,22.50
2009,07,29,03,12,22.50
2009,07,29,03,13,22.50
2009,07,29,03,14,22.50
2009,07,29,03,15,22.50
2009,07,29,03,16,22.50
2009,07,29,03,17,22.50
2009,07,29,03,18,22.50
2009,07,29,03,19,22.50
2009,07,29,03,20,22.60
2009,07,29,03,21,22.60
2009,07,29,03,22,22.60
2009,07,29,03,23,22.60
2009,07,29,03,24,22.60
2009,07,29,03,25,22.60
2009,07,29,03,26,22.60
2009,07,29,03,27,22.60
2009,07,29,03,28,22.60
2009,07,29,03,29,22.60
2009,07,29,03,30,22.60
2009,07,29,03,31,22.60
2009,07,29,03,32,22.60
2009,07,29,03,33,22.60
2009,07,29,03,34,22.60
2009,07,29,03,35,22.60
2009,07,29,03,36,22.60
2009,07,29,03,37,22.60
2009,07,29,03,38,22.70
2009,07,29,03,39,22.70
2009,07,29,03,40,22.70
2009,07,29,03,41,22.70
2009,07,29,03,42,22.70
2009,07,29,03,43,22.70
2009,07,29,03,44,22.70
2009,07,29,03,45,22.70
2009,07,29,03,46,22.70
2009,07,29,03,47,22.70
2009,07,29,03,48,22.70
2009,07,29,03,49,22.60
2009,07,29,03,50,22.60
2009,07,29,03,51,22.60
2009,07,29,03,52,22.60
2009,07,29,03,53,22.60
2009,07,29,03,54,22.60
2009,07,29,03,55,22.60
2009,07,29,03,56,22.60
2009,07,29,03,57,22.60
2009,07,29,03,58,22.60
2009,07,29,03,59,22.60
2009,07,29,04,00,22.50
2009,07,29,04,01,22.60
2009,07,29,04,02,22.50
2009,07,29,04,03,22.60
2009,07,29,04,04,22.50
2009,07,29,04,05,22.60
2009,07,29,04,06,22.60
2009,07,29,04,07,22.60
2009,07,29,04,08,22.60
2009,07,29,04,09,22.60
2009,07,29,04,10,22.60
2009,07,29,04,11,22.60
2009,07,29,04,12,22.50
2009,07,29,04,13,22.50
2009,07,29,04,14,22.50
2009,07,29,04,15,22.50
2009,07,29,04,16,22.50
2009,07,29,04,17,22.40
2009,07,29,04,18,22.40
2009,07,29,04,19,22.40
2009,07,29,04,20,22.40
2009,07,29,04,21,22.40
2009,07,29,04,22,22.30
2009,07,29,04,23,22.30
2009,07,29,04,24,22.30
2009,07,29,04,25,22.30
2009,07,29,04,26,22.20
2009,07,29,04,27,22.20
2009,07,29,04,28,22.20
2009,07,29,04,29,22.20
2009,07,29,04,30,22.20
2009,07,29,04,31,22.10
2009,07,29,04,32,22.10
2009,07,29,04,33,22.10
2009,07,29,04,34,22.10
2009,07,29,04,35,22.10
2009,07,29,04,36,22.10
2009,07,29,04,37,22.10
2009,07,29,04,38,22.10
2009,07,29,04,39,22.10
2009,07,29,04,40,22.10
2009,07,29,04,41,22.10
2009,07,29,04,42,22.10
2009,07,29,04,43,22.10
2009,07,29,04,44,22.10
2009,07,29,04,45,22.10
2009,07,29,04,46,22.10
2009,07,29,04,47,22.10
2009,07,29,04,48,22.10
2009,07,29,04,49,22.10
2009,07,29,04,50,22.10
2009,07,29,04,51,22.10
2009,07,29,04,52,22.10
2009,07,29,04,53,22.10
2009,07,29,04,54,22.10
2009,07,29,04,55,22.10
2009,07,29,04,56,22.10
2009,07,29,04,57,22.10
2009,07,29,04,58,22.00
2009,07,29,04,59,22.00
2009,07,29,05,00,22.00
2009,07,29,05,01,22.00
2009,07,29,05,02,22.00
2009,07,29,05,03,22.00
2009,07,29,05,04,22.00
2009,07,29,05,05,22.00
2009,07,29,05,06,22.00
2009,07,29,05,07,22.00
2009,07,29,05,08,22.00
2009,07,29,05,09,22.00
2009,07,29,05,10,22.00
2009,07,29,05,11,22.00
2009,07,29,05,12,22.00
2009,07,29,05,13,21.90
2009,07,29,05,14,21.90
2009,07,29,05,15,22.00
2009,07,29,05,16,22.00
2009,07,29,05,17,21.90
2009,07,29,05,18,22.00
2009,07,29,05,19,22.00
2009,07,29,05,20,22.00
2009,07,29,05,21,22.00
2009,07,29,05,22,22.10
2009,07,29,05,23,22.10
2009,07,29,05,24,22.10
2009,07,29,05,25,22.10
2009,07,29,05,26,22.20
2009,07,29,05,27,22.20
2009,07,29,05,28,22.20
2009,07,29,05,29,22.20
2009,07,29,05,30,22.20
2009,07,29,05,31,22.20
2009,07,29,05,32,22.20
2009,07,29,05,33,22.20
2009,07,29,05,34,22.20
2009,07,29,05,35,22.30
2009,07,29,05,36,22.30
2009,07,29,05,37,22.30
2009,07,29,05,38,22.30
2009,07,29,05,39,22.30
2009,07,29,05,40,22.30
2009,07,29,05,41,22.30
2009,07,29,05,42,22.30
2009,07,29,05,43,22.30
2009,07,29,05,44,22.30
2009,07,29,05,45,22.30
2009,07,29,05,46,22.30
2009,07,29,05,47,22.30
2009,07,29,05,48,22.30
2009,07,29,05,49,22.30
2009,07,29,05,50,22.30
2009,07,29,05,51,22.30
2009,07,29,05,52,22.40
2009,07,29,05,53,22.40
2009,07,29,05,54,22.40
2009,07,29,05,55,22.40
2009,07,29,05,56,22.40
2009,07,29,05,57,22.40
2009,07,29,05,58,22.40
2009,07,29,05,59,22.40
2009,07,29,06,00,22.40
2009,07,29,06,01,22.40
2009,07,29,06,02,22.40
2009,07,29,06,03,22.40
2009,07,29,06,04,22.40
2009,07,29,06,05,22.40
2009,07,29,06,06,22.40
2009,07,29,06,07,22.30
2009,07,29,06,08,22.30
2009,07,29,06,09,22.30
2009,07,29,06,10,22.30
2009,07,29,06,11,22.30
2009,07,29,06,12,22.30
2009,07,29,06,13,22.30
2009,07,29,06,14,22.20
2009,07,29,06,15,22.20
2009,07,29,06,16,22.20
2009,07,29,06,17,22.20
2009,07,29,06,18,22.20
2009,07,29,06,19,22.10
2009,07,29,06,20,22.10
2009,07,29,06,21,22.10
2009,07,29,06,22,22.10
2009,07,29,06,23,22.10
2009,07,29,06,24,22.10
2009,07,29,06,25,22.00
2009,07,29,06,26,22.00
2009,07,29,06,27,22.00
2009,07,29,06,28,22.00
2009,07,29,06,29,22.00
2009,07,29,06,30,22.00
2009,07,29,06,31,22.00
2009,07,29,06,32,22.00
2009,07,29,06,33,22.00
2009,07,29,06,34,22.00
2009,07,29,06,35,22.00
2009,07,29,06,36,22.00
2009,07,29,06,37,22.00
2009,07,29,06,38,22.10
2009,07,29,06,39,22.10
2009,07,29,06,40,22.10
2009,07,29,06,41,22.10
2009,07,29,06,42,22.10
2009,07,29,06,43,22.10
2009,07,29,06,44,22.10
2009,07,29,06,45,22.10
2009,07,29,06,46,22.20
2009,07,29,06,47,22.20
2009,07,29,06,48,22.20
2009,07,29,06,49,22.20
2009,07,29,06,50,22.20
2009,07,29,06,51,22.20
2009,07,29,06,52,22.20
2009,07,29,06,53,22.30
2009,07,29,06,54,22.30
2009,07,29,06,55,22.30
2009,07,29,06,56,22.30
2009,07,29,06,57,22.30
2009,07,29,06,58,22.40
2009,07,29,06,59,22.40
2009,07,29,07,00,22.40
2009,07,29,07,01,22.40
2009,07,29,07,02,22.50
2009,07,29,07,03,22.50
2009,07,29,07,04,22.60
2009,07,29,07,05,22.60
2009,07,29,07,06,22.60
2009,07,29,07,07,22.70
2009,07,29,07,08,22.70
2009,07,29,07,09,22.80
2009,07,29,07,10,22.80
2009,07,29,07,11,22.80
2009,07,29,07,12,22.90
2009,07,29,07,13,23.00
2009,07,29,07,14,23.10
2009,07,29,07,15,23.10
2009,07,29,07,16,23.20
2009,07,29,07,17,23.20
2009,07,29,07,18,23.30
2009,07,29,07,19,23.40
2009,07,29,07,20,23.40
2009,07,29,07,21,23.50
2009,07,29,07,22,23.60
2009,07,29,07,23,23.70
2009,07,29,07,24,23.80
2009,07,29,07,25,23.80
2009,07,29,07,26,23.90
2009,07,29,07,27,24.00
2009,07,29,07,28,24.10
2009,07,29,07,29,24.20
2009,07,29,07,30,24.30
2009,07,29,07,31,24.40
2009,07,29,07,32,24.40
2009,07,29,07,33,24.50
2009,07,29,07,34,24.60
2009,07,29,07,35,24.70
2009,07,29,07,36,24.70
2009,07,29,07,37,24.80
2009,07,29,07,38,24.90
2009,07,29,07,39,24.90
2009,07,29,07,40,25.00
2009,07,29,07,41,25.10
2009,07,29,07,42,25.20
2009,07,29,07,43,25.30
2009,07,29,07,44,25.30
2009,07,29,07,45,25.40
2009,07,29,07,46,25.50
2009,07,29,07,47,25.60
2009,07,29,07,48,25.60
2009,07,29,07,49,25.70
2009,07,29,07,50,25.70
2009,07,29,07,51,25.80
2009,07,29,07,52,25.80
2009,07,29,07,53,25.90
2009,07,29,07,54,25.90
2009,07,29,07,55,25.90
2009,07,29,07,56,25.90
2009,07,29,07,57,25.90
2009,07,29,07,58,26.00
2009,07,29,07,59,26.00
2009,07,29,08,00,26.10
2009,07,29,08,01,26.10
2009,07,29,08,02,26.20
2009,07,29,08,03,26.20
2009,07,29,08,04,26.20
2009,07,29,08,05,26.20
2009,07,29,08,06,26.20
2009,07,29,08,07,26.30
2009,07,29,08,08,26.30
2009,07,29,08,09,26.30
2009,07,29,08,10,26.30
2009,07,29,08,11,26.30
2009,07,29,08,12,26.40
2009,07,29,08,13,26.40
2009,07,29,08,14,26.40
2009,07,29,08,15,26.50
2009,07,29,08,16,26.50
2009,07,29,08,17,26.60
2009,07,29,08,18,26.60
2009,07,29,08,19,26.60
2009,07,29,08,20,26.70
2009,07,29,08,21,26.70
2009,07,29,08,22,26.70
2009,07,29,08,23,26.70
2009,07,29,08,24,26.60
2009,07,29,08,25,26.60
2009,07,29,08,26,26.60
2009,07,29,08,27,26.50
2009,07,29,08,28,26.50
2009,07,29,08,29,26.50
2009,07,29,08,30,26.50
2009,07,29,08,31,26.60
2009,07,29,08,32,26.60
2009,07,29,08,33,26.60
2009,07,29,08,34,26.70
2009,07,29,08,35,26.70
2009,07,29,08,36,26.80
2009,07,29,08,37,26.80
2009,07,29,08,38,26.90
2009,07,29,08,39,27.00
2009,07,29,08,40,27.10
2009,07,29,08,41,27.20
2009,07,29,08,42,27.30
2009,07,29,08,43,27.40
2009,07,29,08,44,27.40
2009,07,29,08,45,27.40
2009,07,29,08,46,27.40
2009,07,29,08,47,27.40
2009,07,29,08,48,27.30
2009,07,29,08,49,27.30
2009,07,29,08,50,27.30
2009,07,29,08,51,27.30
2009,07,29,08,52,27.30
2009,07,29,08,53,27.30
2009,07,29,08,54,27.30
2009,07,29,08,55,27.40
2009,07,29,08,56,27.40
2009,07,29,08,57,27.40
2009,07,29,08,58,27.40
2009,07,29,08,59,27.50
2009,07,29,09,00,27.50
2009,07,29,09,01,27.50
2009,07,29,09,02,27.40
2009,07,29,09,03,27.40
2009,07,29,09,04,27.40
2009,07,29,09,05,27.30
2009,07,29,09,06,27.30
2009,07,29,09,07,27.30
2009,07,29,09,08,27.30
2009,07,29,09,09,27.30
2009,07,29,09,10,27.20
2009,07,29,09,11,27.20
2009,07,29,09,12,27.20
2009,07,29,09,13,27.20
2009,07,29,09,14,27.30
2009,07,29,09,15,27.30
2009,07,29,09,16,27.30
2009,07,29,09,17,27.30
2009,07,29,09,18,27.30
2009,07,29,09,19,27.20
2009,07,29,09,20,27.20
2009,07,29,09,21,27.20
2009,07,29,09,22,27.20
2009,07,29,09,23,27.20
2009,07,29,09,24,27.30
2009,07,29,09,25,27.30
2009,07,29,09,26,27.30
2009,07,29,09,27,27.30
2009,07,29,09,28,27.30
2009,07,29,09,29,27.30
2009,07,29,09,30,27.40
2009,07,29,09,31,27.40
2009,07,29,09,32,27.40
2009,07,29,09,33,27.40
2009,07,29,09,34,27.50
2009,07,29,09,35,27.50
2009,07,29,09,36,27.50
2009,07,29,09,37,27.50
2009,07,29,09,38,27.50
2009,07,29,09,39,27.40
2009,07,29,09,40,27.50
2009,07,29,09,41,27.40
2009,07,29,09,42,27.50
2009,07,29,09,43,27.50
2009,07,29,09,44,27.50
2009,07,29,09,45,27.50
2009,07,29,09,46,27.50
2009,07,29,09,47,27.60
2009,07,29,09,48,27.60
2009,07,29,09,49,27.60
2009,07,29,09,50,27.50
2009,07,29,09,51,27.50
2009,07,29,09,52,27.50
2009,07,29,09,53,27.60
2009,07,29,09,54,27.60
2009,07,29,09,55,27.60
2009,07,29,09,56,27.60
2009,07,29,09,57,27.70
2009,07,29,09,58,27.70
2009,07,29,09,59,27.80
2009,07,29,10,00,27.80
2009,07,29,10,01,27.90
2009,07,29,10,02,27.90
2009,07,29,10,03,27.90
2009,07,29,10,04,27.90
2009,07,29,10,05,28.00
2009,07,29,10,06,28.10
2009,07,29,10,07,28.10
2009,07,29,10,08,28.20
2009,07,29,10,09,28.20
2009,07,29,10,10,28.30
2009,07,29,10,11,28.40
2009,07,29,10,12,28.40
2009,07,29,10,13,28.50
2009,07,29,10,14,28.60
2009,07,29,10,15,28.70
2009,07,29,10,16,28.70
2009,07,29,10,17,28.70
2009,07,29,10,18,28.80
2009,07,29,10,19,28.90
2009,07,29,10,20,28.90
2009,07,29,10,21,29.00
2009,07,29,10,22,29.00
2009,07,29,10,23,29.10
2009,07,29,10,24,29.10
2009,07,29,10,25,29.10
2009,07,29,10,26,29.20
2009,07,29,10,27,29.20
2009,07,29,10,28,29.20
2009,07,29,10,29,29.10
2009,07,29,10,30,29.10
2009,07,29,10,31,29.10
2009,07,29,10,32,29.10
2009,07,29,10,33,29.10
2009,07,29,10,34,29.10
2009,07,29,10,35,29.10
2009,07,29,10,36,29.00
2009,07,29,10,37,28.90
2009,07,29,10,38,28.80
2009,07,29,10,39,28.80
2009,07,29,10,40,28.70
2009,07,29,10,41,28.70
2009,07,29,10,42,28.60
2009,07,29,10,43,28.50
2009,07,29,10,44,28.40
2009,07,29,10,45,28.30
2009,07,29,10,46,28.30
2009,07,29,10,47,28.30
2009,07,29,10,48,28.20
2009,07,29,10,49,28.20
2009,07,29,10,50,28.20
2009,07,29,10,51,28.20
2009,07,29,10,52,28.20
2009,07,29,10,53,28.20
2009,07,29,10,54,28.10
2009,07,29,10,55,28.10
2009,07,29,10,56,28.10
2009,07,29,10,57,28.10
2009,07,29,10,58,28.10
2009,07,29,10,59,28.10
2009,07,29,11,00,28.10
2009,07,29,11,01,28.10
2009,07,29,11,02,28.10
2009,07,29,11,03,28.10
2009,07,29,11,04,28.10
2009,07,29,11,05,28.10
2009,07,29,11,06,28.10
2009,07,29,11,07,28.20
2009,07,29,11,08,28.20
2009,07,29,11,09,28.20
2009,07,29,11,10,28.20
2009,07,29,11,11,28.30
2009,07,29,11,12,28.30
2009,07,29,11,13,28.30
2009,07,29,11,14,28.40
2009,07,29,11,15,28.40
2009,07,29,11,16,28.40
2009,07,29,11,17,28.50
2009,07,29,11,18,28.60
2009,07,29,11,19,28.60
2009,07,29,11,20,28.70
2009,07,29,11,21,28.70
2009,07,29,11,22,28.80
2009,07,29,11,23,28.80
2009,07,29,11,24,28.80
2009,07,29,11,25,28.80
2009,07,29,11,26,28.80
2009,07,29,11,27,28.80
2009,07,29,11,28,28.80
2009,07,29,11,29,28.90
2009,07,29,11,30,28.90
2009,07,29,11,31,28.90
2009,07,29,11,32,29.00
2009,07,29,11,33,29.00
2009,07,29,11,34,29.00
2009,07,29,11,35,29.00
2009,07,29,11,36,29.00
2009,07,29,11,37,29.00
2009,07,29,11,38,28.90
2009,07,29,11,39,28.90
2009,07,29,11,40,28.80
2009,07,29,11,41,28.80
2009,07,29,11,42,28.80
2009,07,29,11,43,28.80
2009,07,29,11,44,28.80
2009,07,29,11,45,28.80
2009,07,29,11,46,28.70
2009,07,29,11,47,28.70
2009,07,29,11,48,28.70
2009,07,29,11,49,28.70
2009,07,29,11,50,28.80
2009,07,29,11,51,28.80
2009,07,29,11,52,28.80
2009,07,29,11,53,28.90
2009,07,29,11,54,29.00
2009,07,29,11,55,29.10
2009,07,29,11,56,29.10
2009,07,29,11,57,29.20
2009,07,29,11,58,29.20
2009,07,29,11,59,29.20
2009,07,29,12,00,29.20
2009,07,29,12,01,29.20
2009,07,29,12,02,29.20
2009,07,29,12,03,29.20
2009,07,29,12,04,29.20
2009,07,29,12,05,29.20
2009,07,29,12,06,29.20
2009,07,29,12,07,29.10
2009,07,29,12,08,29.10
2009,07,29,12,09,29.10
2009,07,29,12,10,29.10
2009,07,29,12,11,29.00
2009,07,29,12,12,29.00
2009,07,29,12,13,29.00
2009,07,29,12,14,29.00
2009,07,29,12,15,29.00
2009,07,29,12,16,29.00
2009,07,29,12,17,29.10
2009,07,29,12,18,29.10
2009,07,29,12,19,29.10
2009,07,29,12,20,29.10
2009,07,29,12,21,29.20
2009,07,29,12,22,29.30
2009,07,29,12,23,29.40
2009,07,29,12,24,29.40
2009,07,29,12,25,29.50
2009,07,29,12,26,29.60
2009,07,29,12,27,29.60
2009,07,29,12,28,29.60
2009,07,29,12,29,29.60
2009,07,29,12,30,29.60
2009,07,29,12,31,29.60
2009,07,29,12,32,29.60
2009,07,29,12,33,29.60
2009,07,29,12,34,29.50
2009,07,29,12,35,29.50
2009,07,29,12,36,29.50
2009,07,29,12,37,29.40
2009,07,29,12,38,29.50
2009,07,29,12,39,29.60
2009,07,29,12,40,29.60
2009,07,29,12,41,29.60
2009,07,29,12,42,29.60
2009,07,29,12,43,29.60
2009,07,29,12,44,29.60
2009,07,29,12,45,29.50
2009,07,29,12,46,29.50
2009,07,29,12,47,29.40
2009,07,29,12,48,29.40
2009,07,29,12,49,29.50
2009,07,29,12,50,29.50
2009,07,29,12,51,29.70
2009,07,29,12,52,29.70
2009,07,29,12,53,29.80
2009,07,29,12,54,29.90
2009,07,29,12,55,29.90
2009,07,29,12,56,29.90
2009,07,29,12,57,29.90
2009,07,29,12,58,29.90
2009,07,29,12,59,29.90
2009,07,29,13,00,29.90
2009,07,29,13,01,29.90
2009,07,29,13,02,30.00
2009,07,29,13,03,30.00
2009,07,29,13,04,30.00
2009,07,29,13,05,30.10
2009,07,29,13,06,30.10
2009,07,29,13,07,30.10
2009,07,29,13,08,30.10
2009,07,29,13,09,30.00
2009,07,29,13,10,30.00
2009,07,29,13,11,29.90
2009,07,29,13,12,29.80
2009,07,29,13,13,29.80
2009,07,29,13,14,29.70
2009,07,29,13,15,29.60
2009,07,29,13,16,29.50
2009,07,29,13,17,29.50
2009,07,29,13,18,29.50
2009,07,29,13,19,29.40
2009,07,29,13,20,29.50
2009,07,29,13,21,29.50
2009,07,29,13,22,29.50
2009,07,29,13,23,29.60
2009,07,29,13,24,29.60
2009,07,29,13,25,29.70
2009,07,29,13,26,29.70
2009,07,29,13,27,29.80
2009,07,29,13,28,29.80
2009,07,29,13,29,29.80
2009,07,29,13,30,29.80
2009,07,29,13,31,29.80
2009,07,29,13,32,29.90
2009,07,29,13,33,29.90
2009,07,29,13,34,29.90
2009,07,29,13,35,29.90
2009,07,29,13,36,29.90
2009,07,29,13,37,29.90
2009,07,29,13,38,29.90
2009,07,29,13,39,29.90
2009,07,29,13,40,29.90
2009,07,29,13,41,29.80
2009,07,29,13,42,29.80
2009,07,29,13,43,29.90
2009,07,29,13,44,29.90
2009,07,29,13,45,30.00
2009,07,29,13,46,30.10
2009,07,29,13,47,30.10
2009,07,29,13,48,30.10
2009,07,29,13,49,30.10
2009,07,29,13,50,30.00
2009,07,29,13,51,29.90
2009,07,29,13,52,29.80
2009,07,29,13,53,29.70
2009,07,29,13,54,29.60
2009,07,29,13,55,29.40
2009,07,29,13,56,29.30
2009,07,29,13,57,29.10
2009,07,29,13,58,29.00
2009,07,29,13,59,28.90
2009,07,29,14,00,28.80
2009,07,29,14,01,28.80
2009,07,29,14,02,28.70
2009,07,29,14,03,28.70
2009,07,29,14,04,28.70
2009,07,29,14,05,28.70
2009,07,29,14,06,28.70
2009,07,29,14,07,28.70
2009,07,29,14,08,28.80
2009,07,29,14,09,28.80
2009,07,29,14,10,28.80
2009,07,29,14,11,28.90
2009,07,29,14,12,29.00
2009,07,29,14,13,29.00
2009,07,29,14,14,29.10
2009,07,29,14,15,29.10
2009,07,29,14,16,29.10
2009,07,29,14,17,29.20
2009,07,29,14,18,29.20
2009,07,29,14,19,29.30
2009,07,29,14,20,29.40
2009,07,29,14,21,29.40
2009,07,29,14,22,29.50
2009,07,29,14,23,29.50
2009,07,29,14,24,29.60
2009,07,29,14,25,29.60
2009,07,29,14,26,29.60
2009,07,29,14,27,29.60
2009,07,29,14,28,29.70
2009,07,29,14,29,29.70
2009,07,29,14,30,29.70
2009,07,29,14,31,29.80
2009,07,29,14,32,29.80
2009,07,29,14,33,30.00
2009,07,29,14,34,30.10
2009,07,29,14,35,30.20
2009,07,29,14,36,30.30
2009,07,29,14,37,30.40
2009,07,29,14,38,30.60
2009,07,29,14,39,30.80
2009,07,29,14,40,30.90
2009,07,29,14,41,30.90
2009,07,29,14,42,31.00
2009,07,29,14,43,31.00
2009,07,29,14,44,31.20
2009,07,29,14,45,31.20
2009,07,29,14,46,31.30
2009,07,29,14,47,31.40
2009,07,29,14,48,31.40
2009,07,29,14,49,31.50
2009,07,29,14,50,31.60
2009,07,29,14,51,31.70
2009,07,29,14,52,31.70
2009,07,29,14,53,31.80
2009,07,29,14,54,31.80
2009,07,29,14,55,31.90
2009,07,29,14,56,31.90
2009,07,29,14,57,32.00
2009,07,29,14,58,32.10
2009,07,29,14,59,32.10
2009,07,29,15,00,32.20
2009,07,29,15,01,32.20
2009,07,29,15,02,32.20
2009,07,29,15,03,32.20
2009,07,29,15,04,32.10
2009,07,29,15,05,32.10
2009,07,29,15,06,32.10
2009,07,29,15,07,32.00
2009,07,29,15,08,31.90
2009,07,29,15,09,31.80
2009,07,29,15,10,31.80
2009,07,29,15,11,31.80
2009,07,29,15,12,31.70
2009,07,29,15,13,31.70
2009,07,29,15,14,31.70
2009,07,29,15,15,31.70
2009,07,29,15,16,31.60
2009,07,29,15,17,31.60
2009,07,29,15,18,31.60
2009,07,29,15,19,31.60
2009,07,29,15,20,31.70
2009,07,29,15,21,31.70
2009,07,29,15,22,31.70
2009,07,29,15,23,31.70
2009,07,29,15,24,31.70
2009,07,29,15,25,31.80
2009,07,29,15,26,31.80
2009,07,29,15,27,31.90
2009,07,29,15,28,31.90
2009,07,29,15,29,32.00
2009,07,29,15,30,32.10
2009,07,29,15,31,32.10
2009,07,29,15,32,32.10
2009,07,29,15,33,32.10
2009,07,29,15,34,32.10
2009,07,29,15,35,32.10
2009,07,29,15,36,32.10
2009,07,29,15,37,32.10
2009,07,29,15,38,32.10
2009,07,29,15,39,32.10
2009,07,29,15,40,32.10
2009,07,29,15,41,32.20
2009,07,29,15,42,32.30
2009,07,29,15,43,32.50
2009,07,29,15,44,32.50
2009,07,29,15,45,32.60
2009,07,29,15,46,32.60
2009,07,29,15,47,32.50
2009,07,29,15,48,32.40
2009,07,29,15,49,32.20
2009,07,29,15,50,32.00
2009,07,29,15,51,31.80
2009,07,29,15,52,31.60
2009,07,29,15,53,31.50
2009,07,29,15,54,31.40
2009,07,29,15,55,31.30
2009,07,29,15,56,31.30
2009,07,29,15,57,31.40
2009,07,29,15,58,31.50
2009,07,29,15,59,31.50
2009,07,29,16,00,31.50
2009,07,29,16,01,31.60
2009,07,29,16,02,31.50
2009,07,29,16,03,31.50
2009,07,29,16,04,31.50
2009,07,29,16,05,31.50
2009,07,29,16,06,31.50
2009,07,29,16,07,31.60
2009,07,29,16,08,31.60
2009,07,29,16,09,31.60
2009,07,29,16,10,31.60
2009,07,29,16,11,31.60
2009,07,29,16,12,31.50
2009,07,29,16,13,31.40
2009,07,29,16,14,31.30
2009,07,29,16,15,31.30
2009,07,29,16,16,31.20
2009,07,29,16,17,31.10
2009,07,29,16,18,31.00
2009,07,29,16,19,31.00
2009,07,29,16,20,31.00
2009,07,29,16,21,30.90
2009,07,29,16,22,30.90
2009,07,29,16,23,30.90
2009,07,29,16,24,30.90
2009,07,29,16,25,30.90
2009,07,29,16,26,30.80
2009,07,29,16,27,30.90
2009,07,29,16,28,30.90
2009,07,29,16,29,30.90
2009,07,29,16,30,30.90
2009,07,29,16,31,31.00
2009,07,29,16,32,31.00
2009,07,29,16,33,30.90
2009,07,29,16,34,30.90
2009,07,29,16,35,30.90
2009,07,29,16,36,31.00
2009,07,29,16,37,31.10
2009,07,29,16,38,31.10
2009,07,29,16,39,31.20
2009,07,29,16,40,31.30
2009,07,29,16,41,31.40
2009,07,29,16,42,31.50
2009,07,29,16,43,31.60
2009,07,29,16,44,31.60
2009,07,29,16,45,31.70
2009,07,29,16,46,31.70
2009,07,29,16,47,31.70
2009,07,29,16,48,31.70
2009,07,29,16,49,31.70
2009,07,29,16,50,31.60
2009,07,29,16,51,31.60
2009,07,29,16,52,31.50
2009,07,29,16,53,31.50
2009,07,29,16,54,31.50
2009,07,29,16,55,31.50
2009,07,29,16,56,31.40
2009,07,29,16,57,31.40
2009,07,29,16,58,31.40
2009,07,29,16,59,31.40
2009,07,29,17,00,31.40
2009,07,29,17,01,31.50
2009,07,29,17,02,31.60
2009,07,29,17,03,31.60
2009,07,29,17,04,31.70
2009,07,29,17,05,31.80
2009,07,29,17,06,31.80
2009,07,29,17,07,31.80
2009,07,29,17,08,31.80
2009,07,29,17,09,31.80
2009,07,29,17,10,31.80
2009,07,29,17,11,31.80
2009,07,29,17,12,31.90
2009,07,29,17,13,31.90
2009,07,29,17,14,31.90
2009,07,29,17,15,31.90
2009,07,29,17,16,31.90
2009,07,29,17,17,31.90
2009,07,29,17,18,31.80
2009,07,29,17,19,31.80